Radiation Dose at Monitoring Post of Fukushima Daini Nuclear Power Station
Date,Time,MP-1(microSv/h),MP-2(microSv/h),MP-3(microSv/h),MP-4(microSv/h),MP-5(microSv/h),MP-6(microSv/h),MP-7(microSv/h),Wind Direction,Wind Velocity(m/s),Rain
2014/05/21,00:00,0.7,0.5,0.8,0.7,0.7,0.3,0.3,southeast,1.0,No
2014/05/21,00:10,0.7,0.5,0.8,0.7,0.7,0.3,0.3,-,CALM,No
2014/05/21,00:20,0.7,0.5,0.8,0.7,0.7,0.3,0.3,-,CALM,No
2014/05/21,00:30,0.7,0.5,0.8,0.7,0.7,0.3,0.3,west-northwest,0.7,No
2014/05/21,00:40,0.7,0.5,0.8,0.7,0.7,0.3,0.3,west,0.9,No
2014/05/21,00:50,0.7,0.5,0.8,0.7,0.7,0.3,0.3,northwest,1.2,No
2014/05/21,01:00,0.7,0.5,0.8,0.7,0.7,0.3,0.3,north-northwest,1.7,No
2014/05/21,01:10,0.7,0.5,0.8,0.7,0.7,0.3,0.3,north,1.6,No
2014/05/21,01:20,0.7,0.5,0.8,0.7,0.7,0.3,0.3,north-northwest,1.5,No
2014/05/21,01:30,0.7,0.5,0.8,0.7,0.7,0.3,0.3,north-northwest,2.3,No
2014/05/21,01:40,0.7,0.5,0.8,0.7,0.7,0.3,0.3,north,1.8,No
2014/05/21,01:50,0.7,0.5,0.8,0.7,0.7,0.3,0.3,north,2.7,No
2014/05/21,02:00,0.7,0.5,0.8,0.7,0.7,0.3,0.3,north,2.5,No
2014/05/21,02:10,0.7,0.5,0.8,0.7,0.7,0.3,0.3,north,2.8,No
2014/05/21,02:20,0.7,0.5,0.8,0.7,0.7,0.3,0.3,north-northeast,3.0,No
2014/05/21,02:30,0.7,0.5,0.8,0.7,0.7,0.3,0.3,north,3.3,No
2014/05/21,02:40,0.7,0.5,0.8,0.7,0.7,0.3,0.3,north,3.3,No
2014/05/21,02:50,0.7,0.5,0.8,0.7,0.7,0.3,0.3,north,3.3,No
2014/05/21,03:00,0.7,0.5,0.8,0.7,0.7,0.3,0.3,north,3.6,No
2014/05/21,03:10,0.7,0.5,0.8,0.7,0.7,0.3,0.3,north,3.3,No
2014/05/21,03:20,0.7,0.5,0.8,0.7,0.7,0.3,0.3,north,3.4,No
2014/05/21,03:30,0.7,0.5,0.8,0.7,0.7,0.3,0.3,north,3.7,No
2014/05/21,03:40,0.7,0.5,0.8,0.7,0.7,0.3,0.3,north,2.4,No
2014/05/21,03:50,0.7,0.5,0.8,0.7,0.7,0.3,0.3,north,2.0,Yes
2014/05/21,04:00,0.7,0.5,0.8,0.7,0.7,0.3,0.3,north,2.2,Yes
2014/05/21,04:10,0.7,0.5,0.8,0.7,0.7,0.3,0.3,north,3.8,Yes
2014/05/21,04:20,0.7,0.5,0.8,0.7,0.7,0.3,0.3,northwest,3.0,Yes
2014/05/21,04:30,0.7,0.5,0.8,0.7,0.7,0.3,0.3,northwest,3.3,Yes
2014/05/21,04:40,0.7,0.5,0.8,0.7,0.7,0.3,0.3,north-northwest,3.3,Yes
2014/05/21,04:50,0.7,0.5,0.8,0.7,0.7,0.3,0.3,north,3.5,Yes
2014/05/21,05:00,0.7,0.5,0.8,0.7,0.7,0.3,0.3,north,4.8,Yes
2014/05/21,05:10,0.7,0.5,0.8,0.7,0.7,0.3,0.3,north,6.2,Yes
2014/05/21,05:20,0.7,0.5,0.8,0.7,0.7,0.3,0.3,north,6.7,Yes
2014/05/21,05:30,0.7,0.5,0.8,0.7,0.6,0.3,0.3,north,5.4,Yes
2014/05/21,05:40,0.7,0.5,0.8,0.7,0.7,0.3,0.3,north-northwest,4.0,Yes
2014/05/21,05:50,0.7,0.5,0.8,0.7,0.6,0.3,0.3,north,2.8,Yes
2014/05/21,06:00,0.7,0.5,0.8,0.7,0.6,0.3,0.3,north,3.4,No
2014/05/21,06:10,0.7,0.5,0.8,0.7,0.6,0.3,0.3,north,5.4,No
2014/05/21,06:20,0.7,0.5,0.8,0.7,0.6,0.3,0.3,north,6.1,Yes
2014/05/21,06:30,0.7,0.5,0.8,0.7,0.6,0.3,0.3,north,5.2,Yes
2014/05/21,06:40,0.7,0.5,0.8,0.7,0.6,0.3,0.3,north-northeast,4.2,No
2014/05/21,06:50,0.7,0.5,0.8,0.7,0.6,0.3,0.3,north,5.3,No
2014/05/21,07:00,0.7,0.5,0.8,0.7,0.6,0.3,0.3,north,4.8,No
2014/05/21,07:10,0.7,0.5,0.8,0.7,0.6,0.3,0.3,north,5.9,Yes
2014/05/21,07:20,0.7,0.5,0.8,0.7,0.6,0.3,0.3,north-northwest,6.0,Yes
2014/05/21,07:30,0.7,0.5,0.8,0.7,0.6,0.3,0.3,north-northwest,6.9,Yes
2014/05/21,07:40,0.7,0.5,0.8,0.7,0.6,0.3,0.3,north-northwest,5.8,Yes
2014/05/21,07:50,0.7,0.5,0.8,0.7,0.6,0.3,0.3,north-northwest,4.9,Yes
2014/05/21,08:00,0.7,0.5,0.8,0.7,0.6,0.3,0.3,north-northwest,5.2,Yes
2014/05/21,08:10,0.7,0.5,0.8,0.7,0.6,0.3,0.3,north,6.7,Yes
2014/05/21,08:20,0.7,0.5,0.8,0.7,0.6,0.3,0.3,north,6.1,Yes
2014/05/21,08:30,0.7,0.5,0.8,0.7,0.6,0.3,0.3,north,6.8,Yes
2014/05/21,08:40,0.7,0.5,0.8,0.7,0.6,0.3,0.3,north,6.5,Yes
2014/05/21,08:50,0.7,0.5,0.8,0.7,0.6,0.3,0.3,north,6.4,Yes
2014/05/21,09:00,0.7,0.5,0.8,0.7,0.6,0.3,0.3,north,7.1,Yes
2014/05/21,09:10,0.7,0.5,0.7,0.7,0.6,0.3,0.3,north-northeast,7.5,Yes
2014/05/21,09:20,0.7,0.5,0.7,0.7,0.6,0.3,0.3,north-northeast,7.6,Yes
2014/05/21,09:30,0.7,0.5,0.7,0.7,0.6,0.3,0.3,north-northeast,8.7,Yes
2014/05/21,09:40,0.7,0.5,0.7,0.7,0.6,0.3,0.3,north-northeast,8.2,Yes
2014/05/21,09:50,0.7,0.5,0.7,0.7,0.6,0.3,0.3,north-northeast,9.1,Yes
2014/05/21,10:00,0.7,-,0.7,0.7,0.6,0.3,0.3,north-northeast,9.1,Yes
2014/05/21,10:10,0.7,-,0.7,0.7,0.6,0.3,0.3,north-northeast,6.9,Yes
2014/05/21,10:20,0.7,-,0.7,0.7,0.6,0.3,0.3,north-northeast,8.3,Yes
2014/05/21,10:30,0.7,-,0.7,0.7,0.6,0.3,0.3,north-northwest,9.2,Yes
2014/05/21,10:40,0.7,-,0.7,0.7,0.6,0.3,0.3,north-northwest,8.4,Yes
2014/05/21,10:50,0.7,-,0.7,0.7,0.6,0.3,0.3,north,2.3,Yes
2014/05/21,11:00,0.7,0.5,0.7,0.7,0.6,0.3,0.3,northwest,0.8,Yes
2014/05/21,11:10,0.7,0.5,0.7,0.7,0.6,0.3,0.3,north,7.0,Yes
2014/05/21,11:20,0.7,0.5,0.7,0.7,0.6,0.3,0.3,north-northeast,6.5,Yes
2014/05/21,11:30,0.7,0.5,0.7,0.7,0.6,0.3,0.3,northeast,9.7,Yes
2014/05/21,11:40,0.7,0.5,0.7,0.7,0.6,0.3,0.3,north-northeast,8.8,Yes
2014/05/21,11:50,0.7,0.5,0.7,0.7,0.6,0.3,0.3,north-northeast,9.0,Yes
2014/05/21,12:00,0.7,0.5,0.7,0.7,0.6,0.3,0.3,north-northeast,8.4,Yes
2014/05/21,12:10,0.7,0.5,0.7,0.7,0.6,0.3,0.3,north,8.5,Yes
2014/05/21,12:20,0.7,0.5,0.7,0.7,0.6,0.3,0.3,north,8.3,Yes
2014/05/21,12:30,0.7,0.5,0.7,0.7,0.6,0.3,0.3,north-northeast,9.4,Yes
2014/05/21,12:40,0.7,0.5,0.7,0.7,0.6,0.3,0.3,north-northeast,9.8,Yes
2014/05/21,12:50,0.7,0.5,0.7,0.7,0.6,0.3,0.3,north,8.5,Yes
2014/05/21,13:00,0.7,0.5,0.7,0.7,0.6,0.3,0.3,north-northeast,10.6,Yes
2014/05/21,13:10,0.7,0.5,0.7,0.7,0.6,0.3,0.3,north-northeast,9.3,Yes
2014/05/21,13:20,0.7,0.5,0.7,0.7,0.6,0.3,0.3,north-northeast,10.1,Yes
2014/05/21,13:30,0.7,0.5,0.7,0.7,0.6,0.3,0.3,north,10.0,Yes
2014/05/21,13:40,0.7,0.5,0.7,0.7,0.6,0.3,0.3,north-northeast,11.2,Yes
2014/05/21,13:50,0.7,0.5,0.7,0.7,0.6,0.3,0.3,north,10.2,Yes
2014/05/21,14:00,0.7,0.5,0.7,0.7,0.6,0.3,0.3,north-northeast,9.6,Yes
2014/05/21,14:10,0.7,0.5,0.7,0.6,0.6,0.3,0.3,north-northeast,12.6,Yes
2014/05/21,14:20,0.7,-,0.7,0.7,0.6,0.3,0.3,north-northeast,12.4,Yes
2014/05/21,14:30,0.7,-,0.7,0.6,0.6,0.3,0.3,north-northeast,11.7,Yes
2014/05/21,14:40,0.7,-,0.7,0.6,0.6,0.3,0.3,north-northeast,11.3,Yes
2014/05/21,14:50,0.7,-,0.7,0.6,0.6,0.3,0.3,north,10.8,Yes
2014/05/21,15:00,0.7,-,0.7,0.6,0.6,0.3,0.3,north,11.2,Yes
2014/05/21,15:10,0.7,-,0.7,0.6,0.6,0.3,0.3,north,11.8,Yes
2014/05/21,15:20,0.7,0.5,0.7,0.6,0.6,0.3,0.3,north,11.2,Yes
2014/05/21,15:30,0.7,0.5,0.7,0.6,0.6,0.3,0.3,north,11.8,Yes
2014/05/21,15:40,0.7,0.5,0.7,0.6,0.6,0.3,0.3,north,12.1,Yes
2014/05/21,15:50,0.7,0.5,0.7,0.6,0.6,0.3,0.3,north,13.8,Yes
2014/05/21,16:00,0.7,0.5,0.7,0.6,0.6,0.3,0.3,north,15.2,Yes
2014/05/21,16:10,0.7,0.5,0.7,0.6,0.6,0.3,0.3,north,13.6,Yes
2014/05/21,16:20,0.7,0.5,0.7,0.6,0.6,0.3,0.3,north,14.6,Yes
2014/05/21,16:30,0.7,0.5,0.7,0.6,0.6,0.3,0.3,north,12.5,Yes
2014/05/21,16:40,0.7,0.5,0.7,0.6,0.6,0.3,0.3,north,12.8,Yes
2014/05/21,16:50,0.7,0.5,0.7,0.6,0.6,0.3,0.3,north-northwest,10.4,Yes
2014/05/21,17:00,0.7,0.5,0.7,0.6,0.6,0.3,0.3,north,12.1,Yes
2014/05/21,17:10,0.7,0.5,0.7,0.6,0.6,0.3,0.3,north,12.7,Yes
2014/05/21,17:20,0.7,0.5,0.7,0.6,0.6,0.3,0.3,north,11.0,Yes
2014/05/21,17:30,0.7,0.5,0.7,0.6,0.6,0.3,0.3,north,14.1,Yes
2014/05/21,17:40,0.7,0.5,0.7,0.6,0.6,0.3,0.3,north-northwest,10.7,Yes
2014/05/21,17:50,0.7,0.5,0.7,0.6,0.6,0.3,0.3,north,12.8,Yes
2014/05/21,18:00,0.7,0.5,0.7,0.6,0.6,0.3,0.3,north,11.6,Yes
2014/05/21,18:10,0.7,0.5,0.7,0.6,0.6,0.3,0.3,north-northwest,12.4,Yes
2014/05/21,18:20,0.7,0.5,0.7,0.6,0.6,0.3,0.3,north-northwest,13.3,Yes
2014/05/21,18:30,0.7,0.5,0.7,0.6,0.6,0.3,0.3,north,12.4,Yes
2014/05/21,18:40,0.7,0.5,0.7,0.6,0.6,0.3,0.3,north-northwest,13.7,Yes
2014/05/21,18:50,0.7,0.5,0.7,0.6,0.6,0.3,0.3,north-northwest,12.6,Yes
2014/05/21,19:00,0.7,0.5,0.7,0.6,0.6,0.3,0.3,north-northwest,14.3,Yes
2014/05/21,19:10,0.7,0.5,0.7,0.6,0.6,0.3,0.3,north-northwest,10.7,Yes
2014/05/21,19:20,0.7,0.5,0.7,0.6,0.6,0.3,0.3,north-northwest,13.7,Yes
2014/05/21,19:30,0.7,0.5,0.7,0.6,0.6,0.3,0.3,north-northwest,12.9,Yes
2014/05/21,19:40,0.7,0.5,0.7,0.6,0.6,0.3,0.3,north-northwest,14.1,Yes
2014/05/21,19:50,0.7,0.5,0.7,0.6,0.6,0.3,0.3,north-northwest,13.6,Yes
2014/05/21,20:00,0.7,0.5,0.7,0.6,0.6,0.3,0.3,north-northwest,14.6,Yes
2014/05/21,20:10,0.7,0.5,0.7,0.6,0.6,0.3,0.3,north-northwest,12.7,Yes
2014/05/21,20:20,0.7,0.5,0.7,0.6,0.6,0.3,0.3,north-northwest,14.3,Yes
2014/05/21,20:30,0.7,0.5,0.7,0.6,0.6,0.3,0.3,north-northwest,12.6,Yes
2014/05/21,20:40,0.7,0.5,0.7,0.6,0.6,0.3,0.3,north-northwest,12.3,Yes
2014/05/21,20:50,0.7,0.5,0.7,0.6,0.6,0.3,0.3,north-northwest,14.2,Yes
2014/05/21,21:00,0.7,0.5,0.7,0.6,0.6,0.3,0.3,north-northwest,13.2,Yes
2014/05/21,21:10,0.7,0.5,0.7,0.6,0.6,0.3,0.3,north-northwest,12.4,Yes
2014/05/21,21:20,0.7,0.5,0.7,0.6,0.6,0.3,0.3,north-northwest,13.1,Yes
2014/05/21,21:30,0.7,0.5,0.7,0.6,0.6,0.3,0.3,north-northwest,12.1,Yes
2014/05/21,21:40,0.7,0.5,0.7,0.6,0.6,0.3,0.3,north-northwest,12.0,Yes
2014/05/21,21:50,0.7,0.5,0.7,0.6,0.6,0.3,0.3,north,12.9,Yes
2014/05/21,22:00,0.7,0.5,0.7,0.6,0.6,0.3,0.3,north,13.7,Yes
2014/05/21,22:10,0.7,0.5,0.7,0.6,0.6,0.3,0.3,north,13.2,Yes
2014/05/21,22:20,0.7,0.5,0.7,0.6,0.6,0.3,0.3,north,14.9,Yes
2014/05/21,22:30,0.7,0.5,0.7,0.6,0.6,0.3,0.3,north,12.4,Yes
2014/05/21,22:40,0.7,0.5,0.7,0.6,0.6,0.3,0.3,north,12.9,Yes
2014/05/21,22:50,0.7,0.5,0.7,0.6,0.6,0.3,0.3,north-northwest,11.2,No
2014/05/21,23:00,0.7,0.5,0.7,0.6,0.6,0.3,0.3,north-northwest,11.8,No
2014/05/21,23:10,0.7,0.5,0.7,0.6,0.6,0.3,0.3,north-northwest,13.2,No
2014/05/21,23:20,0.7,0.5,0.7,0.6,0.6,0.3,0.3,north-northwest,11.4,No
2014/05/21,23:30,0.7,0.5,0.7,0.6,0.6,0.3,0.3,north-northwest,12.4,No
2014/05/21,23:40,0.7,0.5,0.7,0.6,0.6,0.3,0.3,north-northwest,11.9,No
2014/05/21,23:50,0.7,0.5,0.7,0.6,0.6,0.3,0.3,north-northwest,12.3,No
